RH
61 61 64 65 64 62 60 60 62 63 63 62 59 60 63 74 70 66 65 56 49 52 58 61 60 60 59 62 66 67 64 62 62
67 67 67 66 64 61 57 55 61 66 69 67 67 66 72 77 72 69 66 65 48 49 55 60 61 61 61 61 60 61 63 61 62
73 70 70 64 65 64 63 62 63 64 68 70 70 74 78 73 75 66 68 67 56 52 53 59 62 62 61 61 61 61 62 62 62
72 75 70 68 68 68 72 69 66 64 66 67 74 79 82 90 79 61 64 67 56 55 57 58 61 63 63 62 65 65 63 63 63
76 79 77 72 72 71 69 69 70 70 70 73 80 83 85 93 78 67 62 63 54 54 57 60 61 62 63 66 69 68 68 64 64
71 76 80 75 72 73 73 73 74 80 83 83 81 83 87 79 67 63 64 63 50 51 56 60 64 64 64 65 70 72 69 69 68
58 74 75 74 79 81 76 77 81 85 83 75 77 88 80 73 65 63 67 61 52 52 58 62 63 67 66 66 66 66 72 72 74
69 76 76 86 85 87 78 86 86 86 78 69 67 72 73 66 65 63 69 68 57 57 62 66 64 67 68 66 66 68 72 74 75
66 68 70 72 73 78 74 76 66 64 61 60 60 59 64 65 61 63 71 72 66 60 63 67 68 68 69 71 69 72 74 74 74
73 74 73 65 64 64 66 64 63 60 58 56 56 53 54 54 56 55 71 77 78 71 64 64 66 67 66 72 76 76 73 74 75
77 74 68 69 69 67 66 67 65 62 58 53 59 62 61 61 60 59 62 71 77 78 68 64 65 67 68 66 70 77 78 76 74
72 71 72 68 65 63 65 60 61 62 56 61 59 59 60 62 62 59 60 62 70 76 72 68 64 65 64 66 66 70 75 77 80
57 56 52 56 54 53 51 52 53 54 52 52 47 49 38 38 52 43 48 50 39 49 61 69 66 65 64 62 63 65 72 74 76
51 51 49 48 54 54 52 53 58 57 54 43 40 43 52 40 36 41 32 32 35 39 53 63 66 66 64 58 62 65 69 73 76
50 50 48 49 54 54 49 48 48 54 55 32 42 40 38 42 48 37 27 35 39 36 40 39 50 59 56 52 51 52 57 63 69
44 49 45 46 49 47 40 46 48 52 50 56 42 48 42 38 32 28 37 36 33 32 32 42 31 34 50 51 47 46 45 47 55
30 38 41 39 48 44 44 46 54 52 51 54 51 56 43 39 34 38 36 37 33 28 32 24 23 32 31 37 51 53 53 54 59
31 33 35 37 44 48 45 46 47 59 53 46 48 60 60 42 44 37 42 26 31 35 26 24 28 26 33 41 45 52 59 55 59
28 30 33 36 42 41 43 35 46 52 56 53 34 45 46 49 51 47 32 38 26 29 33 30 34 30 33 45 53 58 50 51 53
29 30 32 34 41 40 39 41 43 51 51 52 53 46 50 41 44 50 41 34 32 37 32 41 35 31 31 29 39 52 48 51 54
Wind_Speed
3 8 8 6 4 3 2 2 3 4 4 5 6 7 8 7 6 6 7 3 7 10 5 7 9 10 10 12 10 10 11 9 10
6 8 9 8 5 2 2 4 5 6 7 7 7 7 6 5 6 6 7 6 10 12 12 10 12 12 12 12 13 14 13 14 12
6 9 8 4 5 3 4 5 7 8 8 8 9 9 7 6 6 7 6 12 14 13 13 13 14 16 14 15 15 15 16 15 15
6 10 7 5 4 4 5 8 10 10 11 10 10 8 8 6 5 8 5 12 17 15 15 16 17 17 17 18 17 17 17 17 16
7 9 7 5 4 6 8 10 11 11 12 13 12 13 10 6 7 8 7 17 17 16 15 16 18 19 20 19 19 18 19 19 19
9 5 8 4 6 8 10 12 12 12 11 14 18 15 4 6 6 5 12 14 16 17 17 18 19 21 22 22 21 20 21 21 21
4 4 6 7 9 10 13 14 14 11 6 6 10 4 7 6 6 4 10 13 16 17 17 18 21 22 23 23 24 25 23 22 22
3 3 3 4 7 4 6 7 6 6 6 5 4 5 7 5 4 6 12 14 18 20 19 19 21 23 24 25 26 25 24 24 24
3 1 1 3 3 4 4 3 5 5 6 6 6 6 5 4 4 5 13 14 18 21 21 20 21 23 26 26 26 25 25 25 26
3 3 3 3 3 3 3 4 4 6 7 6 6 8 8 8 4 4 9 11 13 16 20 22 23 23 25 25 28 26 26 26 27
2 3 3 5 4 4 4 4 4 4 4 6 7 7 6 7 7 6 6 14 13 14 17 20 22 22 24 24 25 26 27 28 28
4 4 4 4 4 6 5 6 6 6 6 7 6 6 7 6 7 6 5 7 13 12 15 17 18 19 22 23 24 24 25 26 28
7 6 5 5 5 5 5 5 5 5 5 5 5 5 9 10 7 8 7 7 8 10 15 17 19 23 23 24 26 25 23 23 24
6 5 5 6 5 5 5 4 4 4 6 7 7 7 6 9 8 8 11 11 9 7 9 13 14 17 22 23 23 24 25 23 25
7 5 6 6 5 5 5 6 6 5 5 8 7 8 8 7 5 8 10 9 9 11 9 10 8 17 21 23 25 26 26 26 25
7 5 6 6 5 5 6 4 6 4 5 3 7 5 5 6 10 13 10 10 10 11 10 6 8 9 20 21 25 29 31 30 29
7 6 5 6 5 6 6 5 4 3 5 3 5 5 6 6 10 8 8 7 7 12 8 13 15 10 10 15 27 28 28 31 29
7 7 6 6 5 4 5 5 6 4 4 7 2 5 4 13 3 9 5 13 10 7 11 13 12 14 11 14 18 25 23 24 24
6 6 6 5 4 6 4 5 4 4 5 4 3 4 5 8 10 2 13 6 11 11 7 11 9 14 14 16 21 22 26 27 28
6 5 5 5 4 5 6 6 6 3 3 3 3 5 4 6 9 15 8 9 8 7 10 8 11 13 12 15 17 27 30 33 32
Wind_Direction
206 140 130 121 108 79 19 323 310 306 305 302 308 302 307 329 284 301 310 253 260 271 225 267 264 274 272 273 268 268 270 260 266
177 153 154 155 172 203 303 298 298 288 278 277 278 279 282 289 280 279 286 274 242 264 263 257 262 252 269 260 268 271 263 267 255
131 174 182 204 173 231 273 300 301 297 293 282 278 280 266 281 280 262 256 268 263 253 258 264 262 266 256 257 253 258 263 262 263
92 153 182 202 203 267 271 290 296 293 290 288 290 275 254 251 262 276 262 252 260 256 257 259 260 259 256 256 260 249 252 255 253
181 181 198 210 252 281 288 289 290 287 287 289 283 263 250 247 252 256 254 260 263 259 258 257 260 260 262 259 254 263 249 248 251
216 171 165 227 275 281 278 278 279 275 275 267 261 258 238 246 249 240 240 246 265 269 268 267 267 268 266 264 264 256 257 253 248
117 163 204 242 257 263 267 266 261 262 253 262 265 215 226 242 246 241 253 257 263 265 267 269 269 267 267 265 264 264 260 256 254
194 223 216 226 235 235 253 248 244 242 240 246 259 215 218 231 246 247 248 251 259 261 261 261 265 268 268 267 264 261 261 261 256
228 234 259 243 227 230 273 278 284 269 276 265 260 258 255 251 249 243 246 246 251 259 261 262 264 269 274 269 266 264 261 258 258
29 351 325 302 346 343 337 340 331 331 318 320 328 313 306 302 295 299 288 271 251 257 265 267 268 271 280 279 274 263 256 257 256
12 313 1 28 8 354 331 311 311 314 322 338 330 324 336 327 327 319 320 308 292 264 275 280 277 277 279 285 284 283 271 261 254
21 44 31 359 358 8 9 3 353 355 345 331 311 306 303 296 283 286 277 278 280 263 264 278 291 283 276 278 279 281 283 279 269
57 52 25 11 25 27 13 6 358 351 341 315 321 349 333 314 322 320 318 354 357 347 331 316 304 292 284 282 285 286 285 286 283
55 47 25 13 27 28 12 354 13 348 336 339 340 318 310 319 317 344 350 339 331 330 338 327 331 345 340 333 318 306 297 295 293
37 34 37 18 18 21 14 12 360 346 345 330 331 313 311 307 4 348 335 322 341 334 346 334 338 342 332 327 325 323 329 320 304
41 27 29 21 19 31 16 3 353 337 331 342 325 295 335 331 347 341 323 333 329 340 334 345 331 325 327 325 321 317 311 308 302
47 34 23 25 19 25 11 22 343 324 341 348 311 334 317 9 313 299 309 311 327 326 336 329 323 321 325 317 313 312 316 319 312
40 37 27 21 24 23 0 16 3 335 332 2 345 342 308 318 276 302 316 333 315 328 320 307 326 316 323 320 305 296 308 323 323
33 38 31 32 26 24 355 2 355 2 328 336 5 304 294 313 314 299 318 310 316 306 307 308 315 320 314 308 313 322 334 326 320
48 31 33 37 30 10 359 349 349 328 321 313 318 310 301 302 302 306 308 297 299 296 298 320 314 316 312 312 310 328 324 318 315